User: anonymous   Login
Location: Axtheid
(49.6213°N, 11.8205°E)
Time: 17:58:34
(UTC+00:00)
Language:

Cosmos 1328 - Orbit

View from above orbital plane
View from above orbital plane
View from above satellite
View from above satellite

Ground track
Ground track

The orbit data is extracted from the following two-line orbital elements,

1 12987U 81117A   21109.83764468  .00001163  00000-0  72773-4 0  9995
2 12987  82.5093 314.9613 0019851 228.2403 131.7129 15.08319263143592
Epoch (UTC): 19 April 2021 20:06:12
Eccentricity: 0.0019851
inclination: 82.5093°
perigee height: 527 km
apogee height: 555 km
right ascension of ascending node: 314.9613°
argument of perigee: 228.2403°
revolutions per day: 15.08319263
mean anomaly at epoch: 131.7129°
orbit number at epoch: 14359

The dashed part of the orbit path shows where the satellite is in the earth's shadow,  

DLR